Time,TemperatureF,DewpointF,PressureIn,WindDirection,WindDirectionDegrees,WindSpeedMPH,WindSpeedGustMPH,Humidity,HourlyPrecipIn,Conditions,Clouds,dailyrainin,SoftwareType,DateUTC
2013-02-02 00:27:00,46.8,41.9,30.21,WNW,301,1.0,2.0,83,0.00,,,0.00,Wunderground v.1.15,2013-02-02 08:27:00,
2013-02-02 00:57:00,44.6,41.0,30.21,WNW,292,1.0,3.0,87,0.00,,,0.00,Wunderground v.1.15,2013-02-02 08:57:00,
2013-02-02 01:27:00,44.4,41.4,30.22,WNW,293,2.0,4.0,89,0.00,,,0.00,Wunderground v.1.15,2013-02-02 09:27:00,
2013-02-02 01:57:00,44.5,41.7,30.23,WNW,298,2.0,2.0,90,0.00,,,0.00,Wunderground v.1.15,2013-02-02 09:57:00,
2013-02-02 02:27:00,43.6,40.6,30.24,NW,311,3.0,4.0,89,0.00,,,0.00,Wunderground v.1.15,2013-02-02 10:27:00,
2013-02-02 02:57:00,43.2,40.8,30.24,NW,309,5.0,5.0,91,0.00,,,0.00,Wunderground v.1.15,2013-02-02 10:57:00,
2013-02-02 03:27:00,42.9,41.0,30.23,WNW,285,5.0,5.0,93,0.00,,,0.00,Wunderground v.1.15,2013-02-02 11:27:00,
2013-02-02 03:57:00,42.3,40.7,30.22,WNW,302,0.0,0.0,94,0.00,,,0.00,Wunderground v.1.15,2013-02-02 11:57:00,
2013-02-02 04:27:00,41.5,40.2,30.22,WNW,294,2.0,2.0,95,0.00,,,0.00,Wunderground v.1.15,2013-02-02 12:27:00,
2013-02-02 04:57:00,41.3,40.2,30.23,WNW,288,2.0,2.0,96,0.00,,,0.00,Wunderground v.1.15,2013-02-02 12:57:00,
2013-02-02 05:27:00,41.0,39.9,30.23,NW,315,1.0,1.0,96,0.00,,,0.00,Wunderground v.1.15,2013-02-02 13:27:00,
2013-02-02 05:57:00,40.6,39.5,30.23,WNW,300,1.0,1.0,96,0.00,,,0.00,Wunderground v.1.15,2013-02-02 13:57:00,
2013-02-02 06:27:00,40.2,39.4,30.24,NW,307,3.0,4.0,97,0.00,,,0.00,Wunderground v.1.15,2013-02-02 14:27:00,
2013-02-02 06:57:00,40.6,39.8,30.25,WNW,292,4.0,6.0,97,0.00,,,0.00,Wunderground v.1.15,2013-02-02 14:57:00,
2013-02-02 07:27:00,40.8,40.0,30.26,WNW,293,2.0,5.0,97,0.00,,,0.00,Wunderground v.1.15,2013-02-02 15:27:00,
2013-02-02 07:57:00,40.9,40.4,30.27,WNW,298,3.0,3.0,98,0.00,,,0.00,Wunderground v.1.15,2013-02-02 15:57:00,
2013-02-02 08:27:00,41.2,40.7,30.28,WNW,300,5.0,5.0,98,0.00,,,0.00,Wunderground v.1.15,2013-02-02 16:27:00,
2013-02-02 08:57:00,41.9,41.6,30.29,North,354,6.0,6.0,99,0.00,,,0.00,Wunderground v.1.15,2013-02-02 16:57:00,
2013-02-02 09:27:00,43.5,42.7,30.29,WNW,302,3.0,3.0,97,0.00,,,0.00,Wunderground v.1.15,2013-02-02 17:27:00,
2013-02-02 09:57:00,44.0,42.9,30.29,WNW,296,6.0,6.0,96,0.00,,,0.00,Wunderground v.1.15,2013-02-02 17:57:00,
2013-02-02 10:27:00,45.9,44.3,30.29,West,271,6.0,8.0,94,0.00,,,0.00,Wunderground v.1.15,2013-02-02 18:27:00,
2013-02-02 10:57:00,47.7,45.5,30.30,WSW,255,8.0,9.0,92,0.00,,,0.00,Wunderground v.1.15,2013-02-02 18:57:00,
2013-02-02 11:27:00,49.6,46.5,30.29,WNW,284,7.0,9.0,89,0.00,,,0.00,Wunderground v.1.15,2013-02-02 19:27:00,
2013-02-02 11:57:00,52.4,46.7,30.27,WSW,253,3.0,3.0,81,0.00,,,0.00,Wunderground v.1.15,2013-02-02 19:57:00,
2013-02-02 12:27:00,54.9,45.7,30.26,SE,125,3.0,3.0,71,0.00,,,0.00,Wunderground v.1.15,2013-02-02 20:27:00,
2013-02-02 12:57:00,56.6,46.5,30.25,East,96,1.0,1.0,69,0.00,,,0.00,Wunderground v.1.15,2013-02-02 20:57:00,
2013-02-02 13:27:00,56.3,46.3,30.24,SSW,195,2.0,2.0,69,0.00,,,0.00,Wunderground v.1.15,2013-02-02 21:27:00,
2013-02-02 13:57:00,57.8,46.5,30.22,ENE,59,2.0,2.0,66,0.00,,,0.00,Wunderground v.1.15,2013-02-02 21:57:00,
2013-02-02 14:27:00,58.4,46.3,30.22,SE,124,1.0,4.0,64,0.00,,,0.00,Wunderground v.1.15,2013-02-02 22:27:00,
2013-02-02 14:57:00,58.4,49.4,30.22,NNW,340,2.0,2.0,72,0.00,,,0.00,Wunderground v.1.15,2013-02-02 22:57:00,
2013-02-02 15:27:00,59.3,46.7,30.21,SE,144,2.0,2.0,63,0.00,,,0.00,Wunderground v.1.15,2013-02-02 23:27:00,
2013-02-02 15:57:00,59.7,47.5,30.21,South,188,1.0,1.0,64,0.00,,,0.00,Wunderground v.1.15,2013-02-02 23:57:00,
2013-02-02 16:27:00,58.9,48.0,30.22,West,259,1.0,3.0,67,0.00,,,0.00,Wunderground v.1.15,2013-02-03 00:27:00,
2013-02-02 16:57:00,52.1,45.8,30.22,WNW,289,8.0,8.0,79,0.00,,,0.00,Wunderground v.1.15,2013-02-03 00:57:00,
2013-02-02 17:27:00,49.5,44.6,30.23,NW,314,9.0,9.0,83,0.00,,,0.00,Wunderground v.1.15,2013-02-03 01:27:00,
2013-02-02 17:57:00,47.9,43.9,30.23,NNW,330,7.0,7.0,86,0.00,,,0.00,Wunderground v.1.15,2013-02-03 01:57:00,
2013-02-02 18:27:00,47.2,43.5,30.24,NNW,333,3.0,3.0,87,0.00,,,0.00,Wunderground v.1.15,2013-02-03 02:27:00,
2013-02-02 18:57:00,45.9,42.8,30.24,WNW,300,6.0,6.0,89,0.00,,,0.00,Wunderground v.1.15,2013-02-03 02:57:00,
2013-02-02 19:27:00,45.3,42.5,30.24,NW,313,7.0,7.0,90,0.00,,,0.00,Wunderground v.1.15,2013-02-03 03:27:00,
2013-02-02 19:57:00,45.0,42.5,30.24,NW,308,6.0,7.0,91,0.00,,,0.00,Wunderground v.1.15,2013-02-03 03:57:00,
2013-02-02 20:27:00,44.8,42.3,30.24,West,281,8.0,8.0,91,0.00,,,0.00,Wunderground v.1.15,2013-02-03 04:27:00,
2013-02-02 20:57:00,44.8,42.3,30.24,NW,317,8.0,8.0,91,0.00,,,0.00,Wunderground v.1.15,2013-02-03 04:57:00,
2013-02-02 21:27:00,44.4,41.9,30.24,WNW,298,4.0,5.0,91,0.00,,,0.00,Wunderground v.1.15,2013-02-03 05:27:00,
2013-02-02 21:57:00,44.4,41.7,30.24,NW,307,6.0,6.0,90,0.00,,,0.00,Wunderground v.1.15,2013-02-03 05:57:00,
2013-02-02 22:27:00,44.3,41.3,30.23,NW,309,7.0,7.0,89,0.00,,,0.00,Wunderground v.1.15,2013-02-03 06:27:00,
2013-02-02 22:57:00,44.1,41.1,30.23,WNW,302,5.0,6.0,89,0.00,,,0.00,Wunderground v.1.15,2013-02-03 06:57:00,
2013-02-02 23:27:00,44.1,40.8,30.24,NW,326,4.0,4.0,88,0.00,,,0.00,Wunderground v.1.15,2013-02-03 07:27:00,
2013-02-02 23:57:00,43.8,40.5,30.24,West,260,5.0,5.0,88,0.00,,,0.00,Wunderground v.1.15,2013-02-03 07:57:00,